Year,Month,Day,Hour,Minute,Value (Times are PST for temperature in C)
2013,10,29,00,00,6.70
2013,10,29,00,01,6.70
2013,10,29,00,02,6.60
2013,10,29,00,03,6.60
2013,10,29,00,04,6.60
2013,10,29,00,05,6.60
2013,10,29,00,06,6.50
2013,10,29,00,07,6.50
2013,10,29,00,08,6.50
2013,10,29,00,09,6.50
2013,10,29,00,10,6.40
2013,10,29,00,11,6.40
2013,10,29,00,12,6.40
2013,10,29,00,13,6.40
2013,10,29,00,14,6.30
2013,10,29,00,15,6.30
2013,10,29,00,16,6.30
2013,10,29,00,17,6.30
2013,10,29,00,18,6.30
2013,10,29,00,19,6.30
2013,10,29,00,20,6.30
2013,10,29,00,21,6.20
2013,10,29,00,22,6.20
2013,10,29,00,23,6.20
2013,10,29,00,24,6.10
2013,10,29,00,25,6.10
2013,10,29,00,26,6.10
2013,10,29,00,27,6.00
2013,10,29,00,28,6.00
2013,10,29,00,29,5.90
2013,10,29,00,30,5.90
2013,10,29,00,31,5.90
2013,10,29,00,32,5.90
2013,10,29,00,33,5.90
2013,10,29,00,34,5.90
2013,10,29,00,35,5.80
2013,10,29,00,36,5.80
2013,10,29,00,37,5.80
2013,10,29,00,38,5.80
2013,10,29,00,39,5.80
2013,10,29,00,40,5.70
2013,10,29,00,41,5.70
2013,10,29,00,42,5.70
2013,10,29,00,43,5.70
2013,10,29,00,44,5.70
2013,10,29,00,45,5.70
2013,10,29,00,46,5.70
2013,10,29,00,47,5.70
2013,10,29,00,48,5.70
2013,10,29,00,49,5.70
2013,10,29,00,50,5.70
2013,10,29,00,51,5.70
2013,10,29,00,52,5.70
2013,10,29,00,53,5.60
2013,10,29,00,54,5.60
2013,10,29,00,55,5.60
2013,10,29,00,56,5.60
2013,10,29,00,57,5.70
2013,10,29,00,58,5.70
2013,10,29,00,59,5.70
2013,10,29,01,00,5.70
2013,10,29,01,01,5.80
2013,10,29,01,02,5.80
2013,10,29,01,03,5.90
2013,10,29,01,04,5.90
2013,10,29,01,05,6.00
2013,10,29,01,06,6.00
2013,10,29,01,07,6.00
2013,10,29,01,08,6.00
2013,10,29,01,09,6.00
2013,10,29,01,10,6.00
2013,10,29,01,11,6.00
2013,10,29,01,12,6.00
2013,10,29,01,13,5.90
2013,10,29,01,14,5.90
2013,10,29,01,15,5.90
2013,10,29,01,16,5.90
2013,10,29,01,17,5.90
2013,10,29,01,18,5.90
2013,10,29,01,19,5.90
2013,10,29,01,20,5.90
2013,10,29,01,21,5.90
2013,10,29,01,22,5.90
2013,10,29,01,23,5.90
2013,10,29,01,24,5.90
2013,10,29,01,25,5.80
2013,10,29,01,26,5.80
2013,10,29,01,27,5.80
2013,10,29,01,28,5.80
2013,10,29,01,29,5.80
2013,10,29,01,30,5.80
2013,10,29,01,31,5.80
2013,10,29,01,32,5.80
2013,10,29,01,33,5.80
2013,10,29,01,34,5.70
2013,10,29,01,35,5.70
2013,10,29,01,36,5.70
2013,10,29,01,37,5.70
2013,10,29,01,38,5.70
2013,10,29,01,39,5.70
2013,10,29,01,40,5.60
2013,10,29,01,41,5.60
2013,10,29,01,42,5.60
2013,10,29,01,43,5.60
2013,10,29,01,44,5.60
2013,10,29,01,45,5.60
2013,10,29,01,46,5.50
2013,10,29,01,47,5.50
2013,10,29,01,48,5.50
2013,10,29,01,49,5.40
2013,10,29,01,50,5.40
2013,10,29,01,51,5.40
2013,10,29,01,52,5.40
2013,10,29,01,53,5.40
2013,10,29,01,54,5.30
2013,10,29,01,55,5.30
2013,10,29,01,56,5.30
2013,10,29,01,57,5.30
2013,10,29,01,58,5.30
2013,10,29,01,59,5.30
2013,10,29,02,00,5.20
2013,10,29,02,01,5.20
2013,10,29,02,02,5.20
2013,10,29,02,03,5.20
2013,10,29,02,04,5.20
2013,10,29,02,05,5.20
2013,10,29,02,06,5.20
2013,10,29,02,07,5.20
2013,10,29,02,08,5.20
2013,10,29,02,09,5.10
2013,10,29,02,10,5.10
2013,10,29,02,11,5.10
2013,10,29,02,12,5.10
2013,10,29,02,13,5.10
2013,10,29,02,14,5.10
2013,10,29,02,15,5.10
2013,10,29,02,16,5.10
2013,10,29,02,17,5.10
2013,10,29,02,18,5.10
2013,10,29,02,19,5.10
2013,10,29,02,20,5.10
2013,10,29,02,21,5.10
2013,10,29,02,22,5.10
2013,10,29,02,23,5.10
2013,10,29,02,24,5.10
2013,10,29,02,25,5.00
2013,10,29,02,26,5.00
2013,10,29,02,27,5.00
2013,10,29,02,28,5.00
2013,10,29,02,29,4.90
2013,10,29,02,30,4.90
2013,10,29,02,31,4.90
2013,10,29,02,32,4.90
2013,10,29,02,33,4.90
2013,10,29,02,34,4.80
2013,10,29,02,35,4.80
2013,10,29,02,36,4.80
2013,10,29,02,37,4.80
2013,10,29,02,38,4.80
2013,10,29,02,39,4.80
2013,10,29,02,40,4.80
2013,10,29,02,41,4.80
2013,10,29,02,42,4.80
2013,10,29,02,43,4.80
2013,10,29,02,44,4.80
2013,10,29,02,45,4.80
2013,10,29,02,46,4.80
2013,10,29,02,47,4.80
2013,10,29,02,48,4.80
2013,10,29,02,49,4.70
2013,10,29,02,50,4.70
2013,10,29,02,51,4.70
2013,10,29,02,52,4.70
2013,10,29,02,53,4.70
2013,10,29,02,54,4.70
2013,10,29,02,55,4.70
2013,10,29,02,56,4.60
2013,10,29,02,57,4.60
2013,10,29,02,58,4.60
2013,10,29,02,59,4.60
2013,10,29,03,00,4.60
2013,10,29,03,01,4.50
2013,10,29,03,02,4.50
2013,10,29,03,03,4.50
2013,10,29,03,04,4.50
2013,10,29,03,05,4.50
2013,10,29,03,06,4.50
2013,10,29,03,07,4.40
2013,10,29,03,08,4.40
2013,10,29,03,09,4.40
2013,10,29,03,10,4.40
2013,10,29,03,11,4.40
2013,10,29,03,12,4.50
2013,10,29,03,13,4.50
2013,10,29,03,14,4.50
2013,10,29,03,15,4.50
2013,10,29,03,16,4.50
2013,10,29,03,17,4.50
2013,10,29,03,18,4.50
2013,10,29,03,19,4.50
2013,10,29,03,20,4.50
2013,10,29,03,21,4.50
2013,10,29,03,22,4.50
2013,10,29,03,23,4.50
2013,10,29,03,24,4.40
2013,10,29,03,25,4.40
2013,10,29,03,26,4.40
2013,10,29,03,27,4.40
2013,10,29,03,28,4.40
2013,10,29,03,29,4.40
2013,10,29,03,30,4.40
2013,10,29,03,31,4.40
2013,10,29,03,32,4.40
2013,10,29,03,33,4.40
2013,10,29,03,34,4.50
2013,10,29,03,35,4.50
2013,10,29,03,36,4.50
2013,10,29,03,37,4.50
2013,10,29,03,38,4.50
2013,10,29,03,39,4.60
2013,10,29,03,40,4.60
2013,10,29,03,41,4.50
2013,10,29,03,42,4.50
2013,10,29,03,43,4.50
2013,10,29,03,44,4.50
2013,10,29,03,45,4.50
2013,10,29,03,46,4.50
2013,10,29,03,47,4.50
2013,10,29,03,48,4.50
2013,10,29,03,49,4.50
2013,10,29,03,50,4.50
2013,10,29,03,51,4.50
2013,10,29,03,52,4.50
2013,10,29,03,53,4.50
2013,10,29,03,54,4.50
2013,10,29,03,55,4.50
2013,10,29,03,56,4.50
2013,10,29,03,57,4.50
2013,10,29,03,58,4.50
2013,10,29,03,59,4.50
2013,10,29,04,00,4.50
2013,10,29,04,01,4.40
2013,10,29,04,02,4.40
2013,10,29,04,03,4.50
2013,10,29,04,04,4.50
2013,10,29,04,05,4.50
2013,10,29,04,06,4.50
2013,10,29,04,07,4.50
2013,10,29,04,08,4.50
2013,10,29,04,09,4.60
2013,10,29,04,10,4.60
2013,10,29,04,11,4.60
2013,10,29,04,12,4.50
2013,10,29,04,13,4.50
2013,10,29,04,14,4.50
2013,10,29,04,15,4.50
2013,10,29,04,16,4.40
2013,10,29,04,17,4.40
2013,10,29,04,18,4.40
2013,10,29,04,19,4.40
2013,10,29,04,20,4.40
2013,10,29,04,21,4.30
2013,10,29,04,22,4.30
2013,10,29,04,23,4.30
2013,10,29,04,24,4.30
2013,10,29,04,25,4.30
2013,10,29,04,26,4.30
2013,10,29,04,27,4.30
2013,10,29,04,28,4.30
2013,10,29,04,29,4.30
2013,10,29,04,30,4.30
2013,10,29,04,31,4.30
2013,10,29,04,32,4.30
2013,10,29,04,33,4.30
2013,10,29,04,34,4.30
2013,10,29,04,35,4.30
2013,10,29,04,36,4.30
2013,10,29,04,37,4.30
2013,10,29,04,38,4.30
2013,10,29,04,39,4.30
2013,10,29,04,40,4.30
2013,10,29,04,41,4.30
2013,10,29,04,42,4.20
2013,10,29,04,43,4.20
2013,10,29,04,44,4.20
2013,10,29,04,45,4.20
2013,10,29,04,46,4.20
2013,10,29,04,47,4.20
2013,10,29,04,48,4.10
2013,10,29,04,49,4.10
2013,10,29,04,50,4.10
2013,10,29,04,51,4.10
2013,10,29,04,52,4.10
2013,10,29,04,53,4.10
2013,10,29,04,54,4.10
2013,10,29,04,55,4.10
2013,10,29,04,56,4.10
2013,10,29,04,57,4.10
2013,10,29,04,58,4.10
2013,10,29,04,59,4.10
2013,10,29,05,00,4.10
2013,10,29,05,01,4.10
2013,10,29,05,02,4.10
2013,10,29,05,03,4.20
2013,10,29,05,04,4.20
2013,10,29,05,05,4.20
2013,10,29,05,06,4.10
2013,10,29,05,07,4.10
2013,10,29,05,08,4.10
2013,10,29,05,09,4.10
2013,10,29,05,10,4.10
2013,10,29,05,11,4.10
2013,10,29,05,12,4.10
2013,10,29,05,13,4.00
2013,10,29,05,14,4.00
2013,10,29,05,15,4.00
2013,10,29,05,16,4.00
2013,10,29,05,17,4.00
2013,10,29,05,18,4.00
2013,10,29,05,19,4.00
2013,10,29,05,20,3.90
2013,10,29,05,21,3.90
2013,10,29,05,22,3.90
2013,10,29,05,23,3.90
2013,10,29,05,24,3.90
2013,10,29,05,25,3.90
2013,10,29,05,26,3.90
2013,10,29,05,27,3.90
2013,10,29,05,28,3.90
2013,10,29,05,29,3.90
2013,10,29,05,30,3.90
2013,10,29,05,31,3.90
2013,10,29,05,32,3.90
2013,10,29,05,33,3.90
2013,10,29,05,34,3.90
2013,10,29,05,35,3.90
2013,10,29,05,36,3.90
2013,10,29,05,37,4.00
2013,10,29,05,38,4.00
2013,10,29,05,39,4.00
2013,10,29,05,40,4.00
2013,10,29,05,41,4.10
2013,10,29,05,42,4.00
2013,10,29,05,43,4.10
2013,10,29,05,44,4.10
2013,10,29,05,45,4.10
2013,10,29,05,46,4.10
2013,10,29,05,47,4.10
2013,10,29,05,48,4.10
2013,10,29,05,49,4.10
2013,10,29,05,50,4.10
2013,10,29,05,51,4.10
2013,10,29,05,52,4.10
2013,10,29,05,53,4.10
2013,10,29,05,54,4.10
2013,10,29,05,55,4.10
2013,10,29,05,56,4.10
2013,10,29,05,57,4.10
2013,10,29,05,58,4.10
2013,10,29,05,59,4.10
2013,10,29,06,00,4.10
2013,10,29,06,01,4.10
2013,10,29,06,02,4.10
2013,10,29,06,03,4.10
2013,10,29,06,04,4.00
2013,10,29,06,05,4.00
2013,10,29,06,06,4.00
2013,10,29,06,07,4.00
2013,10,29,06,08,4.00
2013,10,29,06,09,4.00
2013,10,29,06,10,4.00
2013,10,29,06,11,4.00
2013,10,29,06,12,4.00
2013,10,29,06,13,4.00
2013,10,29,06,14,4.00
2013,10,29,06,15,4.00
2013,10,29,06,16,4.00
2013,10,29,06,17,4.10
2013,10,29,06,18,4.00
2013,10,29,06,19,4.00
2013,10,29,06,20,4.00
2013,10,29,06,21,4.00
2013,10,29,06,22,4.00
2013,10,29,06,23,4.10
2013,10,29,06,24,4.10
2013,10,29,06,25,4.10
2013,10,29,06,26,4.10
2013,10,29,06,27,4.20
2013,10,29,06,28,4.20
2013,10,29,06,29,4.20
2013,10,29,06,30,4.30
2013,10,29,06,31,4.30
2013,10,29,06,32,4.30
2013,10,29,06,33,4.30
2013,10,29,06,34,4.30
2013,10,29,06,35,4.30
2013,10,29,06,36,4.30
2013,10,29,06,37,4.30
2013,10,29,06,38,4.30
2013,10,29,06,39,4.30
2013,10,29,06,40,4.30
2013,10,29,06,41,4.30
2013,10,29,06,42,4.30
2013,10,29,06,43,4.30
2013,10,29,06,44,4.30
2013,10,29,06,45,4.30
2013,10,29,06,46,4.20
2013,10,29,06,47,4.20
2013,10,29,06,48,4.20
2013,10,29,06,49,4.20
2013,10,29,06,50,4.20
2013,10,29,06,51,4.20
2013,10,29,06,52,4.20
2013,10,29,06,53,4.20
2013,10,29,06,54,4.20
2013,10,29,06,55,4.30
2013,10,29,06,56,4.30
2013,10,29,06,57,4.30
2013,10,29,06,58,4.30
2013,10,29,06,59,4.30
2013,10,29,07,00,4.30
2013,10,29,07,01,4.30
2013,10,29,07,02,4.30
2013,10,29,07,03,4.30
2013,10,29,07,04,4.30
2013,10,29,07,05,4.30
2013,10,29,07,06,4.30
2013,10,29,07,07,4.30
2013,10,29,07,08,4.30
2013,10,29,07,09,4.30
2013,10,29,07,10,4.40
2013,10,29,07,11,4.40
2013,10,29,07,12,4.40
2013,10,29,07,13,4.40
2013,10,29,07,14,4.40
2013,10,29,07,15,4.40
2013,10,29,07,16,4.30
2013,10,29,07,17,4.30
2013,10,29,07,18,4.30
2013,10,29,07,19,4.30
2013,10,29,07,20,4.30
2013,10,29,07,21,4.30
2013,10,29,07,22,4.30
2013,10,29,07,23,4.30
2013,10,29,07,24,4.30
2013,10,29,07,25,4.30
2013,10,29,07,26,4.30
2013,10,29,07,27,4.30
2013,10,29,07,28,4.30
2013,10,29,07,29,4.30
2013,10,29,07,30,4.30
2013,10,29,07,31,4.30
2013,10,29,07,32,4.30
2013,10,29,07,33,4.30
2013,10,29,07,34,4.30
2013,10,29,07,35,4.20
2013,10,29,07,36,4.20
2013,10,29,07,37,4.20
2013,10,29,07,38,4.20
2013,10,29,07,39,4.20
2013,10,29,07,40,4.20
2013,10,29,07,41,4.20
2013,10,29,07,42,4.20
2013,10,29,07,43,4.20
2013,10,29,07,44,4.10
2013,10,29,07,45,4.10
2013,10,29,07,46,4.10
2013,10,29,07,47,4.10
2013,10,29,07,48,4.10
2013,10,29,07,49,4.10
2013,10,29,07,50,4.10
2013,10,29,07,51,4.10
2013,10,29,07,52,4.10
2013,10,29,07,53,4.10
2013,10,29,07,54,4.10
2013,10,29,07,55,4.10
2013,10,29,07,56,4.10
2013,10,29,07,57,4.10
2013,10,29,07,58,4.10
2013,10,29,07,59,4.10
2013,10,29,08,00,4.10
2013,10,29,08,01,4.10
2013,10,29,08,02,4.00
2013,10,29,08,03,4.00
2013,10,29,08,04,4.00
2013,10,29,08,05,3.90
2013,10,29,08,06,3.90
2013,10,29,08,07,3.90
2013,10,29,08,08,3.80
2013,10,29,08,09,3.80
2013,10,29,08,10,3.80
2013,10,29,08,11,3.80
2013,10,29,08,12,3.80
2013,10,29,08,13,3.80
2013,10,29,08,14,3.80
2013,10,29,08,15,3.90
2013,10,29,08,16,3.90
2013,10,29,08,17,3.90
2013,10,29,08,18,3.90
2013,10,29,08,19,3.90
2013,10,29,08,20,3.90
2013,10,29,08,21,3.90
2013,10,29,08,22,4.00
2013,10,29,08,23,4.00
2013,10,29,08,24,4.10
2013,10,29,08,25,4.10
2013,10,29,08,26,4.10
2013,10,29,08,27,4.20
2013,10,29,08,28,4.20
2013,10,29,08,29,4.20
2013,10,29,08,30,4.20
2013,10,29,08,31,4.20
2013,10,29,08,32,4.30
2013,10,29,08,33,4.30
2013,10,29,08,34,4.30
2013,10,29,08,35,4.30
2013,10,29,08,36,4.30
2013,10,29,08,37,4.40
2013,10,29,08,38,4.40
2013,10,29,08,39,4.40
2013,10,29,08,40,4.40
2013,10,29,08,41,4.40
2013,10,29,08,42,4.50
2013,10,29,08,43,4.50
2013,10,29,08,44,4.50
2013,10,29,08,45,4.50
2013,10,29,08,46,4.60
2013,10,29,08,47,4.60
2013,10,29,08,48,4.60
2013,10,29,08,49,4.60
2013,10,29,08,50,4.60
2013,10,29,08,51,4.70
2013,10,29,08,52,4.70
2013,10,29,08,53,4.70
2013,10,29,08,54,4.70
2013,10,29,08,55,4.70
2013,10,29,08,56,4.70
2013,10,29,08,57,4.80
2013,10,29,08,58,4.80
2013,10,29,08,59,4.80
2013,10,29,09,00,4.80
2013,10,29,09,01,4.90
2013,10,29,09,02,4.90
2013,10,29,09,03,4.90
2013,10,29,09,04,4.90
2013,10,29,09,05,5.00
2013,10,29,09,06,5.00
2013,10,29,09,07,5.00
2013,10,29,09,08,5.10
2013,10,29,09,09,5.10
2013,10,29,09,10,5.10
2013,10,29,09,11,5.10
2013,10,29,09,12,5.20
2013,10,29,09,13,5.20
2013,10,29,09,14,5.20
2013,10,29,09,15,5.20
2013,10,29,09,16,5.30
2013,10,29,09,17,5.30
2013,10,29,09,18,5.30
2013,10,29,09,19,5.30
2013,10,29,09,20,5.40
2013,10,29,09,21,5.40
2013,10,29,09,22,5.50
2013,10,29,09,23,5.60
2013,10,29,09,24,5.60
2013,10,29,09,25,5.60
2013,10,29,09,26,5.70
2013,10,29,09,27,5.70
2013,10,29,09,28,5.80
2013,10,29,09,29,5.80
2013,10,29,09,30,5.90
2013,10,29,09,31,5.90
2013,10,29,09,32,6.00
2013,10,29,09,33,6.00
2013,10,29,09,34,6.10
2013,10,29,09,35,6.10
2013,10,29,09,36,6.10
2013,10,29,09,37,6.20
2013,10,29,09,38,6.20
2013,10,29,09,39,6.30
2013,10,29,09,40,6.30
2013,10,29,09,41,6.30
2013,10,29,09,42,6.40
2013,10,29,09,43,6.40
2013,10,29,09,44,6.50
2013,10,29,09,45,6.60
2013,10,29,09,46,6.70
2013,10,29,09,47,6.90
2013,10,29,09,48,7.00
2013,10,29,09,49,7.10
2013,10,29,09,50,7.20
2013,10,29,09,51,7.30
2013,10,29,09,52,7.40
2013,10,29,09,53,7.40
2013,10,29,09,54,7.40
2013,10,29,09,55,7.50
2013,10,29,09,56,7.60
2013,10,29,09,57,7.60
2013,10,29,09,58,7.60
2013,10,29,09,59,7.60
2013,10,29,10,00,7.70
2013,10,29,10,01,7.70
2013,10,29,10,02,7.70
2013,10,29,10,03,7.80
2013,10,29,10,04,7.80
2013,10,29,10,05,7.80
2013,10,29,10,06,7.80
2013,10,29,10,07,7.90
2013,10,29,10,08,7.90
2013,10,29,10,09,7.90
2013,10,29,10,10,8.00
2013,10,29,10,11,8.00
2013,10,29,10,12,8.10
2013,10,29,10,13,8.10
2013,10,29,10,14,8.10
2013,10,29,10,15,8.20
2013,10,29,10,16,8.20
2013,10,29,10,17,8.20
2013,10,29,10,18,8.30
2013,10,29,10,19,8.30
2013,10,29,10,20,8.30
2013,10,29,10,21,8.30
2013,10,29,10,22,8.40
2013,10,29,10,23,8.40
2013,10,29,10,24,8.50
2013,10,29,10,25,8.60
2013,10,29,10,26,8.60
2013,10,29,10,27,8.70
2013,10,29,10,28,8.70
2013,10,29,10,29,8.80
2013,10,29,10,30,8.90
2013,10,29,10,31,8.90
2013,10,29,10,32,9.00
2013,10,29,10,33,9.10
2013,10,29,10,34,9.10
2013,10,29,10,35,9.20
2013,10,29,10,36,9.30
2013,10,29,10,37,9.30
2013,10,29,10,38,9.30
2013,10,29,10,39,9.40
2013,10,29,10,40,9.40
2013,10,29,10,41,9.40
2013,10,29,10,42,9.50
2013,10,29,10,43,9.60
2013,10,29,10,44,9.60
2013,10,29,10,45,9.70
2013,10,29,10,46,9.70
2013,10,29,10,47,9.80
2013,10,29,10,48,9.90
2013,10,29,10,49,10.00
2013,10,29,10,50,10.00
2013,10,29,10,51,10.10
2013,10,29,10,52,10.10
2013,10,29,10,53,10.20
2013,10,29,10,54,10.30
2013,10,29,10,55,10.40
2013,10,29,10,56,10.50
2013,10,29,10,57,10.70
2013,10,29,10,58,10.80
2013,10,29,10,59,10.90
2013,10,29,11,00,11.00
2013,10,29,11,01,11.10
2013,10,29,11,02,11.20
2013,10,29,11,03,11.30
2013,10,29,11,04,11.40
2013,10,29,11,05,11.50
2013,10,29,11,06,11.60
2013,10,29,11,07,11.60
2013,10,29,11,08,11.70
2013,10,29,11,09,11.70
2013,10,29,11,10,11.80
2013,10,29,11,11,11.80
2013,10,29,11,12,11.90
2013,10,29,11,13,11.90
2013,10,29,11,14,11.90
2013,10,29,11,15,12.00
2013,10,29,11,16,12.00
2013,10,29,11,17,12.10
2013,10,29,11,18,12.10
2013,10,29,11,19,12.10
2013,10,29,11,20,12.10
2013,10,29,11,21,12.10
2013,10,29,11,22,12.10
2013,10,29,11,23,12.20
2013,10,29,11,24,12.10
2013,10,29,11,25,12.10
2013,10,29,11,26,12.10
2013,10,29,11,27,12.10
2013,10,29,11,28,12.10
2013,10,29,11,29,12.10
2013,10,29,11,30,12.10
2013,10,29,11,31,12.10
2013,10,29,11,32,12.10
2013,10,29,11,33,12.10
2013,10,29,11,34,12.10
2013,10,29,11,35,12.10
2013,10,29,11,36,12.10
2013,10,29,11,37,12.10
2013,10,29,11,38,12.20
2013,10,29,11,39,12.20
2013,10,29,11,40,12.20
2013,10,29,11,41,12.20
2013,10,29,11,42,12.20
2013,10,29,11,43,12.30
2013,10,29,11,44,12.30
2013,10,29,11,45,12.30
2013,10,29,11,46,12.30
2013,10,29,11,47,12.30
2013,10,29,11,48,12.40
2013,10,29,11,49,12.40
2013,10,29,11,50,12.40
2013,10,29,11,51,12.40
2013,10,29,11,52,12.30
2013,10,29,11,53,12.30
2013,10,29,11,54,12.30
2013,10,29,11,55,12.30
2013,10,29,11,56,12.30
2013,10,29,11,57,12.30
2013,10,29,11,58,12.30
2013,10,29,11,59,12.40
2013,10,29,12,00,12.40
2013,10,29,12,01,12.40
2013,10,29,12,02,12.40
2013,10,29,12,03,12.50
2013,10,29,12,04,12.50
2013,10,29,12,05,12.60
2013,10,29,12,06,12.60
2013,10,29,12,07,12.60
2013,10,29,12,08,12.60
2013,10,29,12,09,12.50
2013,10,29,12,10,12.40
2013,10,29,12,11,12.30
2013,10,29,12,12,12.30
2013,10,29,12,13,12.20
2013,10,29,12,14,12.20
2013,10,29,12,15,12.20
2013,10,29,12,16,12.10
2013,10,29,12,17,12.10
2013,10,29,12,18,12.20
2013,10,29,12,19,12.20
2013,10,29,12,20,12.30
2013,10,29,12,21,12.30
2013,10,29,12,22,12.30
2013,10,29,12,23,12.30
2013,10,29,12,24,12.30
2013,10,29,12,25,12.30
2013,10,29,12,26,12.40
2013,10,29,12,27,12.40
2013,10,29,12,28,12.40
2013,10,29,12,29,12.50
2013,10,29,12,30,12.50
2013,10,29,12,31,12.50
2013,10,29,12,32,12.40
2013,10,29,12,33,12.40
2013,10,29,12,34,12.40
2013,10,29,12,35,12.30
2013,10,29,12,36,12.30
2013,10,29,12,37,12.30
2013,10,29,12,38,12.30
2013,10,29,12,39,12.30
2013,10,29,12,40,12.30
2013,10,29,12,41,12.30
2013,10,29,12,42,12.40
2013,10,29,12,43,12.40
2013,10,29,12,44,12.50
2013,10,29,12,45,12.50
2013,10,29,12,46,12.50
2013,10,29,12,47,12.50
2013,10,29,12,48,12.50
2013,10,29,12,49,12.50
2013,10,29,12,50,12.60
2013,10,29,12,51,12.60
2013,10,29,12,52,12.60
2013,10,29,12,53,12.60
2013,10,29,12,54,12.60
2013,10,29,12,55,12.60
2013,10,29,12,56,12.60
2013,10,29,12,57,12.60
2013,10,29,12,58,12.60
2013,10,29,12,59,12.50
2013,10,29,13,00,12.50
2013,10,29,13,01,12.50
2013,10,29,13,02,12.40
2013,10,29,13,03,12.40
2013,10,29,13,04,12.40
2013,10,29,13,05,12.40
2013,10,29,13,06,12.40
2013,10,29,13,07,12.50
2013,10,29,13,08,12.50
2013,10,29,13,09,12.60
2013,10,29,13,10,12.60
2013,10,29,13,11,12.60
2013,10,29,13,12,12.50
2013,10,29,13,13,12.50
2013,10,29,13,14,12.50
2013,10,29,13,15,12.50
2013,10,29,13,16,12.50
2013,10,29,13,17,12.50
2013,10,29,13,18,12.50
2013,10,29,13,19,12.40
2013,10,29,13,20,12.40
2013,10,29,13,21,12.40
2013,10,29,13,22,12.40
2013,10,29,13,23,12.40
2013,10,29,13,24,12.40
2013,10,29,13,25,12.40
2013,10,29,13,26,12.40
2013,10,29,13,27,12.40
2013,10,29,13,28,12.40
2013,10,29,13,29,12.40
2013,10,29,13,30,12.40
2013,10,29,13,31,12.40
2013,10,29,13,32,12.40
2013,10,29,13,33,12.40
2013,10,29,13,34,12.40
2013,10,29,13,35,12.40
2013,10,29,13,36,12.40
2013,10,29,13,37,12.40
2013,10,29,13,38,12.40
2013,10,29,13,39,12.40
2013,10,29,13,40,12.40
2013,10,29,13,41,12.40
2013,10,29,13,42,12.40
2013,10,29,13,43,12.30
2013,10,29,13,44,12.30
2013,10,29,13,45,12.30
2013,10,29,13,46,12.30
2013,10,29,13,47,12.30
2013,10,29,13,48,12.30
2013,10,29,13,49,12.30
2013,10,29,13,50,12.30
2013,10,29,13,51,12.30
2013,10,29,13,52,12.30
2013,10,29,13,53,12.40
2013,10,29,13,54,12.40
2013,10,29,13,55,12.40
2013,10,29,13,56,12.40
2013,10,29,13,57,12.40
2013,10,29,13,58,12.30
2013,10,29,13,59,12.20
2013,10,29,14,00,12.10
2013,10,29,14,01,12.00
2013,10,29,14,02,11.90
2013,10,29,14,03,11.90
2013,10,29,14,04,11.90
2013,10,29,14,05,11.90
2013,10,29,14,06,11.90
2013,10,29,14,07,11.90
2013,10,29,14,08,11.90
2013,10,29,14,09,11.80
2013,10,29,14,10,11.80
2013,10,29,14,11,11.80
2013,10,29,14,12,11.70
2013,10,29,14,13,11.70
2013,10,29,14,14,11.70
2013,10,29,14,15,11.70
2013,10,29,14,16,11.60
2013,10,29,14,17,11.70
2013,10,29,14,18,11.70
2013,10,29,14,19,11.60
2013,10,29,14,20,11.70
2013,10,29,14,21,11.60
2013,10,29,14,22,11.60
2013,10,29,14,23,11.60
2013,10,29,14,24,11.60
2013,10,29,14,25,11.60
2013,10,29,14,26,11.60
2013,10,29,14,27,11.60
2013,10,29,14,28,11.60
2013,10,29,14,29,11.50
2013,10,29,14,30,11.50
2013,10,29,14,31,11.50
2013,10,29,14,32,11.50
2013,10,29,14,33,11.50
2013,10,29,14,34,11.50
2013,10,29,14,35,11.50
2013,10,29,14,36,11.60
2013,10,29,14,37,11.60
2013,10,29,14,38,11.70
2013,10,29,14,39,11.80
2013,10,29,14,40,11.90
2013,10,29,14,41,12.00
2013,10,29,14,42,12.00
2013,10,29,14,43,12.10
2013,10,29,14,44,12.10
2013,10,29,14,45,12.10
2013,10,29,14,46,12.10
2013,10,29,14,47,12.10
2013,10,29,14,48,12.00
2013,10,29,14,49,12.00
2013,10,29,14,50,12.00
2013,10,29,14,51,12.00
2013,10,29,14,52,12.00
2013,10,29,14,53,12.00
2013,10,29,14,54,12.00
2013,10,29,14,55,12.00
2013,10,29,14,56,12.00
2013,10,29,14,57,12.00
2013,10,29,14,58,12.00
2013,10,29,14,59,12.10
2013,10,29,15,00,12.00
2013,10,29,15,01,12.00
2013,10,29,15,02,11.90
2013,10,29,15,03,11.90
2013,10,29,15,04,11.80
2013,10,29,15,05,11.80
2013,10,29,15,06,11.80
2013,10,29,15,07,11.70
2013,10,29,15,08,11.70
2013,10,29,15,09,11.70
2013,10,29,15,10,11.70
2013,10,29,15,11,11.80
2013,10,29,15,12,11.80
2013,10,29,15,13,11.80
2013,10,29,15,14,11.70
2013,10,29,15,15,11.70
2013,10,29,15,16,11.70
2013,10,29,15,17,11.60
2013,10,29,15,18,11.60
2013,10,29,15,19,11.60
2013,10,29,15,20,11.60
2013,10,29,15,21,11.60
2013,10,29,15,22,11.60
2013,10,29,15,23,11.60
2013,10,29,15,24,11.60
2013,10,29,15,25,11.50
2013,10,29,15,26,11.50
2013,10,29,15,27,11.50
2013,10,29,15,28,11.40
2013,10,29,15,29,11.40
2013,10,29,15,30,11.30
2013,10,29,15,31,11.30
2013,10,29,15,32,11.40
2013,10,29,15,33,11.30
2013,10,29,15,34,11.30
2013,10,29,15,35,11.30
2013,10,29,15,36,11.30
2013,10,29,15,37,11.30
2013,10,29,15,38,11.40
2013,10,29,15,39,11.40
2013,10,29,15,40,11.40
2013,10,29,15,41,11.40
2013,10,29,15,42,11.40
2013,10,29,15,43,11.40
2013,10,29,15,44,11.40
2013,10,29,15,45,11.40
2013,10,29,15,46,11.40
2013,10,29,15,47,11.30
2013,10,29,15,48,11.30
2013,10,29,15,49,11.20
2013,10,29,15,50,11.20
2013,10,29,15,51,11.20
2013,10,29,15,52,11.20
2013,10,29,15,53,11.20
2013,10,29,15,54,11.20
2013,10,29,15,55,11.20
2013,10,29,15,56,11.10
2013,10,29,15,57,11.10
2013,10,29,15,58,11.10
2013,10,29,15,59,11.00
2013,10,29,16,00,11.00
2013,10,29,16,01,10.90
2013,10,29,16,02,10.90
2013,10,29,16,03,10.90
2013,10,29,16,04,10.90
2013,10,29,16,05,10.90
2013,10,29,16,06,10.90
2013,10,29,16,07,10.90
2013,10,29,16,08,11.00
2013,10,29,16,09,11.00
2013,10,29,16,10,11.00
2013,10,29,16,11,11.00
2013,10,29,16,12,11.00
2013,10,29,16,13,11.00
2013,10,29,16,14,11.00
2013,10,29,16,15,11.00
2013,10,29,16,16,10.90
2013,10,29,16,17,10.90
2013,10,29,16,18,10.90
2013,10,29,16,19,10.90
2013,10,29,16,20,10.90
2013,10,29,16,21,10.90
2013,10,29,16,22,10.90
2013,10,29,16,23,10.90
2013,10,29,16,24,10.90
2013,10,29,16,25,10.90
2013,10,29,16,26,10.90
2013,10,29,16,27,10.90
2013,10,29,16,28,10.90
2013,10,29,16,29,10.90
2013,10,29,16,30,10.90
2013,10,29,16,31,10.90
2013,10,29,16,32,10.90
2013,10,29,16,33,10.80
2013,10,29,16,34,10.80
2013,10,29,16,35,10.80
2013,10,29,16,36,10.70
2013,10,29,16,37,10.70
2013,10,29,16,38,10.70
2013,10,29,16,39,10.70
2013,10,29,16,40,10.70
2013,10,29,16,41,10.70
2013,10,29,16,42,10.70
2013,10,29,16,43,10.60
2013,10,29,16,44,10.60
2013,10,29,16,45,10.60
2013,10,29,16,46,10.60
2013,10,29,16,47,10.60
2013,10,29,16,48,10.60
2013,10,29,16,49,10.60
2013,10,29,16,50,10.60
2013,10,29,16,51,10.60
2013,10,29,16,52,10.60
2013,10,29,16,53,10.60
2013,10,29,16,54,10.60
2013,10,29,16,55,10.60
2013,10,29,16,56,10.60
2013,10,29,16,57,10.60
2013,10,29,16,58,10.60
2013,10,29,16,59,10.60
2013,10,29,17,00,10.60
2013,10,29,17,01,10.60
2013,10,29,17,02,10.60
2013,10,29,17,03,10.60
2013,10,29,17,04,10.60
2013,10,29,17,05,10.60
2013,10,29,17,06,10.60
2013,10,29,17,07,10.60
2013,10,29,17,08,10.50
2013,10,29,17,09,10.50
2013,10,29,17,10,10.50
2013,10,29,17,11,10.50
2013,10,29,17,12,10.50
2013,10,29,17,13,10.50
2013,10,29,17,14,10.50
2013,10,29,17,15,10.40
2013,10,29,17,16,10.40
2013,10,29,17,17,10.40
2013,10,29,17,18,10.40
2013,10,29,17,19,10.40
2013,10,29,17,20,10.40
2013,10,29,17,21,10.30
2013,10,29,17,22,10.30
2013,10,29,17,23,10.30
2013,10,29,17,24,10.30
2013,10,29,17,25,10.30
2013,10,29,17,26,10.30
2013,10,29,17,27,10.30
2013,10,29,17,28,10.30
2013,10,29,17,29,10.20
2013,10,29,17,30,10.20
2013,10,29,17,31,10.20
2013,10,29,17,32,10.20
2013,10,29,17,33,10.20
2013,10,29,17,34,10.20
2013,10,29,17,35,10.20
2013,10,29,17,36,10.20
2013,10,29,17,37,10.20
2013,10,29,17,38,10.20
2013,10,29,17,39,10.20
2013,10,29,17,40,10.20
2013,10,29,17,41,10.20
2013,10,29,17,42,10.20
2013,10,29,17,43,10.20
2013,10,29,17,44,10.10
2013,10,29,17,45,10.10
2013,10,29,17,46,10.20
2013,10,29,17,47,10.10